Wind_Speed
13 13 13 13 12 10 10 8 8 8 7 6 6 5 5 4 3 2 2 2 2 3 3 2 2 2 2 2 2 3 3 2 2 2 2 2 2 2 2 1 1 1 0 1
14 14 14 15 14 12 11 10 10 10 10 9 9 8 7 6 5 3 3 3 4 5 5 4 4 4 4 3 3 3 2 2 2 2 1 0 1 1 2 1 1 1 1 1
15 15 16 15 14 13 12 12 12 12 11 11 11 10 10 8 7 6 6 6 6 6 7 6 6 6 5 5 4 4 3 3 3 2 2 1 1 2 2 2 2 2 2 2
17 17 16 16 15 14 14 14 14 14 13 12 12 12 12 11 9 8 9 9 8 9 9 9 8 7 6 6 5 4 4 4 3 3 2 2 2 3 3 3 3 4 4 3
18 18 18 17 16 16 16 16 17 16 16 15 15 14 13 13 12 10 10 10 10 10 10 10 10 9 8 7 7 7 5 5 4 4 4 3 4 4 4 4 4 4 4 5
20 20 20 19 19 18 18 18 18 17 17 18 17 16 15 14 13 13 12 11 12 11 11 11 11 11 10 9 8 8 7 7 7 6 5 5 5 5 5 5 5 6 6 6
21 22 21 21 21 21 20 19 19 19 19 19 19 19 17 16 15 15 14 14 14 13 13 13 13 13 12 11 10 10 9 9 9 8 8 7 6 6 6 6 6 7 7 7
23 23 22 22 22 22 22 22 21 21 20 20 21 20 18 18 17 16 16 16 16 16 16 15 15 14 14 13 13 12 11 12 12 12 11 10 9 9 8 8 8 8 8 9
24 24 24 23 23 23 24 24 23 24 24 22 22 22 19 18 17 17 17 17 17 17 17 17 16 16 16 15 14 14 13 14 15 14 13 13 13 12 11 10 10 10 10 10
24 24 24 24 24 24 25 24 24 24 25 24 23 23 21 19 19 19 19 19 19 19 19 18 17 17 18 17 16 16 16 17 17 17 16 15 15 14 14 13 12 12 12 13
23 24 24 24 24 24 25 25 25 26 26 25 24 22 23 21 19 19 20 21 21 21 20 20 19 19 19 19 18 18 18 18 18 18 17 16 17 17 16 15 15 15 15 15
24 24 24 25 25 25 25 25 25 26 27 27 26 23 24 23 21 21 21 22 22 22 22 22 22 21 21 21 21 21 20 20 19 19 19 18 18 18 18 17 17 17 17 18
26 26 25 25 26 27 27 26 26 26 27 27 26 24 25 24 23 22 22 23 23 24 24 24 24 24 23 23 23 23 22 22 21 21 20 19 19 19 19 18 18 19 19 19
27 27 26 25 26 27 27 27 28 28 28 28 28 26 26 26 25 24 24 24 24 25 25 25 26 26 25 25 25 25 25 24 24 22 22 22 21 21 20 20 20 21 21 21
29 29 29 28 28 29 29 29 29 30 30 30 29 28 28 28 28 26 26 26 26 26 25 26 26 26 27 26 26 26 26 25 25 24 24 25 24 23 23 23 23 23 23 23
31 31 31 30 30 30 31 31 31 32 31 31 31 31 30 30 29 28 27 28 28 28 27 27 27 27 27 27 27 27 27 27 27 27 27 26 26 25 25 25 26 26 26 25
32 32 32 31 31 32 33 32 32 32 31 31 32 32 31 31 30 29 29 29 29 29 28 28 28 29 29 28 29 29 30 30 30 29 28 28 27 27 27 28 28 28 28 28
32 32 33 32 33 33 33 33 32 32 31 32 32 33 33 32 32 31 30 30 30 29 29 30 30 30 30 30 30 30 31 32 31 30 30 29 29 30 30 31 30 30 31 30
32 32 32 32 33 33 34 34 32 32 33 33 33 33 33 33 33 32 31 31 31 30 30 31 31 31 31 31 32 32 32 32 32 32 31 31 31 32 32 33 33 33 32 32
32 32 33 33 33 32 32 33 32 33 35 34 35 35 34 33 33 32 32 32 32 31 31 32 31 32 31 32 32 33 33 33 33 33 33 33 33 34 34 35 35 34 34 33
33 34 34 34 34 32 32 32 31 33 34 34 34 34 34 34 33 33 33 33 33 33 32 32 32 32 33 33 33 34 34 34 34 34 34 34 34 35 35 35 35 35 36 36
33 34 34 33 34 33 33 32 32 32 33 34 33 33 33 34 34 34 33 33 33 34 34 33 33 33 33 34 34 34 34 35 35 35 35 35 36 36 36 36 36 36 36 36
33 34 34 34 34 34 34 33 32 32 32 32 32 32 33 33 33 32 33 33 34 34 34 34 34 33 34 34 35 35 36 36 36 36 36 36 36 37 37 37 37 36 36 35
33 33 34 34 34 34 33 33 33 32 32 32 32 32 32 32 31 32 32 33 33 33 33 34 34 34 34 35 35 35 36 36 36 36 36 36 37 37 37 37 36 36 36 35
33 33 34 34 34 34 33 34 33 33 32 33 32 32 32 31 31 31 31 32 32 32 33 34 34 34 34 35 36 36 36 36 35 35 35 36 36 36 37 36 36 36 36 35
32 33 34 34 34 34 34 34 33 32 33 32 31 31 31 30 29 29 30 31 32 32 32 33 33 34 34 35 35 35 35 35 34 34 34 35 35 35 36 36 35 35 35 35
Wind_Direction
226 225 226 230 228 228 226 231 239 243 246 254 259 271 286 294 315 329 306 281 287 308 307 295 291 309 323 337 337 346 10 21 22 28 39 52 46 51 68 104 167 179 219 310
231 229 232 236 237 234 234 239 248 252 253 258 263 270 281 286 288 291 286 279 278 291 295 289 290 298 307 318 314 321 337 347 345 346 354 35 9 4 5 326 267 268 294 291
233 233 234 237 238 238 240 246 250 254 259 261 265 272 275 274 276 276 277 279 278 287 287 288 298 302 297 299 309 314 319 330 335 337 327 339 311 309 321 340 317 299 302 283
236 237 237 239 241 242 246 249 252 254 259 262 264 268 268 266 267 271 274 273 274 280 283 282 285 289 288 284 288 295 300 307 314 311 303 296 295 305 312 320 335 337 332 322
240 241 240 241 244 246 249 252 255 256 259 261 262 263 264 263 262 266 270 270 269 272 275 276 277 276 277 281 282 280 286 285 290 293 294 295 292 295 297 298 311 319 315 315
245 245 244 244 245 247 251 256 260 260 262 264 263 261 263 260 260 263 264 266 268 270 271 270 270 271 273 276 277 278 279 276 274 279 282 281 283 288 294 287 293 303 307 311
248 251 248 247 248 250 252 256 261 263 265 268 266 262 262 259 258 261 262 264 264 266 267 267 266 268 270 271 269 270 275 274 271 271 268 267 270 275 282 287 296 300 300 304
249 250 250 249 249 253 254 254 255 258 263 269 269 265 264 261 260 260 260 262 263 262 264 266 267 265 265 265 267 268 273 271 270 269 265 262 264 269 274 281 291 298 301 298
249 252 252 251 250 251 254 253 255 260 263 262 264 268 268 264 263 261 259 259 259 260 261 264 265 264 264 264 264 264 269 269 266 269 269 264 262 267 272 278 285 290 295 297
249 252 252 253 253 250 251 254 255 256 261 263 267 270 271 265 264 264 260 257 256 257 258 260 262 265 264 262 262 261 265 270 269 274 273 269 264 267 271 274 281 284 289 294
249 251 252 251 250 252 253 254 256 258 259 262 266 267 267 267 266 263 261 258 256 257 258 260 262 263 262 263 263 264 264 267 270 271 268 268 266 266 269 272 276 281 285 290
249 251 253 253 253 251 252 254 256 258 260 261 262 264 266 266 265 262 261 258 257 258 259 259 260 261 260 262 261 262 263 265 268 269 267 270 272 268 267 270 273 277 282 286
250 252 253 255 256 254 254 255 256 258 261 262 263 266 266 265 263 260 259 258 259 258 259 259 258 259 258 259 258 259 260 263 267 268 265 265 268 271 270 271 273 275 278 282
251 252 252 252 254 258 257 257 258 259 259 261 262 263 263 265 263 261 260 260 260 259 258 257 256 256 257 256 255 257 257 260 264 263 261 263 265 268 270 273 275 278 278 280
252 253 252 251 252 255 257 257 257 258 258 259 262 262 262 262 262 262 261 260 261 259 257 256 255 254 255 255 255 256 255 257 259 260 260 262 264 266 269 273 275 279 281 280
252 253 253 252 253 254 256 256 258 259 259 260 261 262 262 263 262 262 261 261 261 259 256 254 254 252 253 253 254 255 254 256 257 259 260 262 264 267 271 274 276 278 279 281
253 254 254 255 255 256 257 257 259 260 260 259 260 261 262 262 262 262 261 261 261 260 257 254 252 252 253 255 255 255 255 257 259 258 259 262 264 268 272 274 275 278 279 282
255 255 255 256 257 258 259 260 260 260 259 260 260 261 262 261 262 261 261 261 260 259 257 255 253 252 252 254 256 257 257 257 258 258 259 261 265 269 272 273 275 276 279 281
256 256 258 258 261 262 260 260 261 261 260 259 261 262 261 261 262 262 259 259 259 258 256 255 254 252 253 254 256 258 258 258 258 258 260 261 265 269 272 273 274 275 276 278
256 257 259 259 260 262 265 265 264 263 262 260 261 262 262 261 262 261 258 258 257 257 256 255 252 251 253 255 256 257 259 258 258 259 259 261 264 268 271 273 272 274 275 275
255 257 258 260 262 263 263 266 265 263 264 264 262 262 262 261 261 261 258 257 256 255 256 255 253 252 253 255 258 259 260 258 258 259 260 261 264 267 268 271 272 274 276 277
256 257 258 259 261 262 265 265 264 265 266 265 264 264 262 262 261 261 259 257 256 255 255 254 253 254 254 256 257 258 259 259 259 260 262 263 264 267 270 271 273 274 277 277
255 255 257 258 260 262 265 266 265 266 265 264 264 264 263 263 263 261 258 256 254 254 254 253 253 254 255 255 255 257 259 259 259 261 262 264 265 268 271 273 274 274 276 278
255 256 257 258 260 261 262 263 264 264 264 264 264 264 264 263 262 260 259 255 253 253 253 253 252 253 254 255 256 258 260 260 261 262 263 264 266 268 271 273 274 275 277 279
256 258 258 260 261 262 262 262 263 263 263 264 264 263 262 261 261 260 257 254 253 252 252 252 252 252 254 256 258 260 261 261 263 263 263 265 266 268 271 273 275 276 277 279
257 258 259 260 262 263 263 263 263 262 262 262 263 263 262 260 260 258 256 254 252 252 253 253 254 253 254 256 257 259 262 263 264 265 265 266 267 270 272 273 274 275 276 278
Height
5912 5915 5916 5918 5919 5920 5921 5922 5923 5923 5923 5923 5923 5923 5923 5922 5921 5921 5920 5920 5919 5918 5917 5916 5915 5914 5914 5913 5912 5911 5910 5909 5908 5908 5907 5906 5905 5905 5904 5904 5903 5903 5903 5903
5910 5912 5914 5914 5916 5918 5919 5920 5921 5921 5921 5921 5921 5922 5922 5921 5920 5920 5920 5919 5919 5918 5917 5916 5915 5914 5914 5913 5912 5911 5910 5909 5908 5908 5907 5906 5906 5905 5905 5904 5904 5903 5903 5903
5907 5909 5910 5912 5913 5915 5916 5917 5918 5919 5919 5919 5920 5920 5920 5920 5919 5919 5918 5918 5918 5917 5916 5915 5914 5914 5913 5912 5911 5910 5910 5909 5908 5907 5906 5906 5906 5905 5905 5905 5904 5903 5903 5902
5903 5905 5906 5908 5910 5912 5913 5914 5914 5915 5916 5918 5918 5919 5919 5918 5917 5917 5917 5916 5916 5915 5915 5914 5913 5912 5912 5911 5910 5910 5909 5908 5908 5907 5907 5906 5906 5905 5905 5905 5904 5903 5902 5902
5899 5901 5902 5904 5907 5908 5909 5910 5911 5912 5912 5914 5915 5915 5917 5915 5915 5915 5914 5914 5913 5913 5912 5912 5911 5911 5910 5910 5909 5908 5908 5908 5907 5907 5906 5906 5905 5905 5904 5904 5903 5902 5902 5901
5895 5896 5898 5900 5902 5903 5904 5906 5907 5908 5909 5910 5911 5912 5913 5913 5912 5912 5912 5911 5911 5910 5910 5909 5909 5908 5908 5908 5907 5907 5907 5906 5906 5906 5905 5905 5904 5904 5903 5903 5902 5901 5901 5900
5891 5892 5894 5896 5897 5899 5900 5903 5904 5905 5906 5907 5907 5907 5909 5908 5908 5908 5908 5908 5907 5907 5907 5906 5906 5906 5906 5905 5905 5905 5905 5905 5904 5904 5904 5903 5903 5902 5902 5901 5901 5900 5899 5899
5886 5888 5889 5891 5893 5894 5896 5898 5900 5902 5903 5904 5901 5901 5904 5903 5903 5903 5903 5903 5903 5903 5903 5903 5903 5903 5903 5902 5902 5902 5902 5902 5902 5902 5902 5901 5901 5901 5900 5900 5899 5898 5898 5897
5881 5883 5884 5885 5887 5888 5890 5891 5894 5895 5895 5896 5897 5896 5897 5897 5898 5898 5898 5898 5899 5899 5899 5899 5899 5899 5899 5899 5899 5899 5899 5899 5898 5899 5899 5899 5898 5898 5898 5897 5897 5896 5895 5894
5875 5877 5878 5879 5881 5882 5884 5885 5887 5888 5889 5890 5891 5891 5892 5892 5892 5893 5893 5893 5893 5894 5894 5895 5895 5895 5895 5895 5896 5896 5896 5895 5895 5895 5895 5895 5895 5895 5895 5895 5894 5893 5893 5892
5869 5871 5873 5874 5875 5877 5878 5879 5880 5882 5882 5884 5886 5889 5886 5885 5886 5886 5887 5887 5887 5888 5889 5889 5890 5890 5890 5891 5891 5891 5891 5891 5891 5892 5891 5891 5891 5891 5891 5891 5890 5890 5889 5888
5863 5865 5866 5868 5869 5870 5871 5872 5874 5875 5875 5876 5878 5883 5879 5878 5879 5880 5880 5881 5881 5882 5883 5884 5884 5885 5885 5885 5886 5886 5887 5887 5887 5887 5887 5887 5887 5887 5887 5887 5886 5886 5885 5884
5856 5858 5860 5862 5863 5863 5864 5865 5866 5868 5868 5869 5871 5875 5872 5871 5872 5872 5873 5874 5875 5876 5877 5877 5878 5879 5879 5880 5880 5881 5881 5882 5882 5882 5882 5882 5882 5882 5882 5882 5881 5881 5880 5879
5849 5851 5854 5856 5856 5855 5856 5858 5859 5860 5861 5862 5863 5865 5865 5864 5864 5865 5866 5867 5868 5869 5869 5870 5871 5872 5872 5873 5874 5874 5875 5876 5876 5876 5877 5877 5877 5877 5877 5877 5876 5875 5874 5874
5840 5842 5844 5846 5847 5848 5848 5850 5851 5852 5853 5854 5856 5856 5856 5856 5856 5857 5858 5859 5860 5861 5862 5863 5864 5864 5865 5866 5867 5867 5868 5869 5870 5870 5871 5871 5871 5871 5871 5871 5870 5870 5869 5868
5831 5833 5835 5837 5838 5839 5840 5841 5842 5843 5844 5845 5846 5847 5848 5848 5848 5849 5850 5851 5852 5853 5854 5855 5856 5857 5857 5858 5859 5860 5861 5862 5863 5864 5864 5864 5865 5865 5865 5865 5864 5863 5862 5862
5822 5824 5826 5828 5829 5829 5831 5833 5834 5834 5836 5837 5838 5839 5839 5839 5840 5841 5842 5842 5843 5844 5845 5846 5847 5849 5850 5851 5852 5853 5854 5854 5855 5856 5857 5857 5858 5858 5858 5858 5857 5856 5855 5854
5813 5815 5816 5818 5819 5820 5825 5823 5824 5825 5826 5827 5827 5828 5829 5830 5831 5831 5832 5833 5834 5835 5836 5837 5839 5840 5841 5842 5844 5845 5845 5846 5847 5848 5849 5850 5850 5851 5850 5850 5849 5848 5847 5846
5804 5806 5807 5809 5809 5811 5813 5813 5815 5815 5816 5817 5818 5818 5819 5820 5821 5821 5822 5823 5824 5825 5827 5828 5829 5831 5832 5834 5835 5836 5837 5838 5839 5840 5841 5841 5842 5842 5842 5841 5840 5839 5838 5837
5795 5796 5799 5799 5800 5802 5804 5803 5805 5806 5805 5807 5807 5808 5809 5810 5811 5812 5812 5813 5814 5816 5817 5819 5820 5822 5824 5825 5826 5827 5828 5829 5830 5831 5831 5832 5833 5833 5832 5831 5830 5829 5828 5828
5786 5787 5789 5790 5790 5793 5793 5793 5795 5796 5796 5796 5797 5797 5798 5799 5801 5801 5802 5803 5804 5806 5807 5809 5811 5813 5814 5816 5817 5818 5819 5820 5821 5821 5822 5823 5823 5823 5822 5821 5820 5820 5820 5819
5777 5778 5779 5781 5782 5785 5783 5784 5785 5785 5786 5786 5786 5787 5788 5789 5789 5790 5791 5792 5794 5796 5797 5799 5801 5803 5804 5806 5807 5809 5810 5811 5811 5812 5812 5812 5813 5813 5812 5812 5811 5810 5810 5809
5767 5769 5770 5772 5774 5773 5773 5773 5774 5775 5775 5776 5777 5778 5778 5778 5779 5779 5781 5782 5784 5785 5787 5789 5791 5793 5794 5796 5798 5799 5800 5800 5801 5802 5802 5802 5803 5803 5802 5802 5801 5801 5800 5799
5757 5759 5760 5761 5762 5763 5764 5764 5765 5765 5766 5766 5767 5768 5768 5768 5769 5770 5770 5771 5773 5775 5777 5779 5781 5783 5785 5786 5788 5789 5789 5790 5791 5792 5792 5792 5792 5792 5792 5791 5791 5791 5790 5789
5747 5749 5749 5751 5752 5753 5754 5754 5755 5755 5756 5757 5757 5758 5758 5759 5759 5760 5760 5761 5763 5765 5766 5769 5771 5773 5775 5776 5778 5779 5780 5780 5781 5781 5781 5782 5782 5782 5782 5781 5781 5781 5780 5779
5737 5738 5740 5741 5742 5742 5744 5744 5744 5745 5746 5747 5748 5748 5748 5749 5750 5750 5751 5752 5754 5755 5757 5759 5761 5763 5765 5766 5767 5768 5769 5770 5771 5772 5772 5772 5772 5772 5772 5771 5771 5770 5770 5769